Year,Month,Day,Hour,Minute,Value (Times are PST for temperature in C)
2017,09,24,00,00,11.60
2017,09,24,00,01,11.60
2017,09,24,00,02,11.60
2017,09,24,00,03,11.60
2017,09,24,00,04,11.60
2017,09,24,00,05,11.50
2017,09,24,00,06,11.50
2017,09,24,00,07,11.40
2017,09,24,00,08,11.40
2017,09,24,00,09,11.40
2017,09,24,00,10,11.30
2017,09,24,00,11,11.30
2017,09,24,00,12,11.30
2017,09,24,00,13,11.30
2017,09,24,00,14,11.30
2017,09,24,00,15,11.30
2017,09,24,00,16,11.30
2017,09,24,00,17,11.30
2017,09,24,00,18,11.30
2017,09,24,00,19,11.30
2017,09,24,00,20,11.30
2017,09,24,00,21,11.30
2017,09,24,00,22,11.30
2017,09,24,00,23,11.30
2017,09,24,00,24,11.30
2017,09,24,00,25,11.30
2017,09,24,00,26,11.30
2017,09,24,00,27,11.30
2017,09,24,00,28,11.30
2017,09,24,00,29,11.30
2017,09,24,00,30,11.30
2017,09,24,00,31,11.30
2017,09,24,00,32,11.20
2017,09,24,00,33,11.20
2017,09,24,00,34,11.20
2017,09,24,00,35,11.20
2017,09,24,00,36,11.20
2017,09,24,00,37,11.10
2017,09,24,00,38,11.10
2017,09,24,00,39,11.10
2017,09,24,00,40,11.10
2017,09,24,00,41,11.10
2017,09,24,00,42,11.00
2017,09,24,00,43,11.00
2017,09,24,00,44,11.00
2017,09,24,00,45,11.00
2017,09,24,00,46,11.00
2017,09,24,00,47,11.00
2017,09,24,00,48,11.00
2017,09,24,00,49,11.00
2017,09,24,00,50,11.00
2017,09,24,00,51,11.00
2017,09,24,00,52,11.00
2017,09,24,00,53,11.00
2017,09,24,00,54,11.00
2017,09,24,00,55,11.00
2017,09,24,00,56,11.00
2017,09,24,00,57,11.00
2017,09,24,00,58,11.00
2017,09,24,00,59,11.00
2017,09,24,01,00,11.00
2017,09,24,01,01,11.00
2017,09,24,01,02,11.00
2017,09,24,01,03,10.90
2017,09,24,01,04,10.90
2017,09,24,01,05,10.90
2017,09,24,01,06,10.90
2017,09,24,01,07,10.90
2017,09,24,01,08,10.80
2017,09,24,01,09,10.80
2017,09,24,01,10,10.80
2017,09,24,01,11,10.80
2017,09,24,01,12,10.80
2017,09,24,01,13,10.80
2017,09,24,01,14,10.80
2017,09,24,01,15,10.80
2017,09,24,01,16,10.80
2017,09,24,01,17,10.80
2017,09,24,01,18,10.80
2017,09,24,01,19,10.70
2017,09,24,01,20,10.70
2017,09,24,01,21,10.70
2017,09,24,01,22,10.70
2017,09,24,01,23,10.70
2017,09,24,01,24,10.70
2017,09,24,01,25,10.70
2017,09,24,01,26,10.70
2017,09,24,01,27,10.70
2017,09,24,01,28,10.70
2017,09,24,01,29,10.70
2017,09,24,01,30,10.70
2017,09,24,01,31,10.70
2017,09,24,01,32,10.70
2017,09,24,01,33,10.70
2017,09,24,01,34,10.70
2017,09,24,01,35,10.70
2017,09,24,01,36,10.60
2017,09,24,01,37,10.60
2017,09,24,01,38,10.60
2017,09,24,01,39,10.60
2017,09,24,01,40,10.60
2017,09,24,01,41,10.60
2017,09,24,01,42,10.60
2017,09,24,01,43,10.60
2017,09,24,01,44,10.60
2017,09,24,01,45,10.70
2017,09,24,01,46,10.70
2017,09,24,01,47,10.70
2017,09,24,01,48,10.70
2017,09,24,01,49,10.70
2017,09,24,01,50,10.70
2017,09,24,01,51,10.70
2017,09,24,01,52,10.70
2017,09,24,01,53,10.70
2017,09,24,01,54,10.70
2017,09,24,01,55,10.70
2017,09,24,01,56,10.70
2017,09,24,01,57,10.70
2017,09,24,01,58,10.70
2017,09,24,01,59,10.70
2017,09,24,02,00,10.70
2017,09,24,02,01,10.70
2017,09,24,02,02,10.70
2017,09,24,02,03,10.70
2017,09,24,02,04,10.70
2017,09,24,02,05,10.70
2017,09,24,02,06,10.70
2017,09,24,02,07,10.70
2017,09,24,02,08,10.70
2017,09,24,02,09,10.70
2017,09,24,02,10,10.70
2017,09,24,02,11,10.60
2017,09,24,02,12,10.60
2017,09,24,02,13,10.60
2017,09,24,02,14,10.60
2017,09,24,02,15,10.60
2017,09,24,02,16,10.60
2017,09,24,02,17,10.60
2017,09,24,02,18,10.70
2017,09,24,02,19,10.60
2017,09,24,02,20,10.60
2017,09,24,02,21,10.70
2017,09,24,02,22,10.70
2017,09,24,02,23,10.70
2017,09,24,02,24,10.70
2017,09,24,02,25,10.70
2017,09,24,02,26,10.70
2017,09,24,02,27,10.70
2017,09,24,02,28,10.70
2017,09,24,02,29,10.70
2017,09,24,02,30,10.70
2017,09,24,02,31,10.70
2017,09,24,02,32,10.70
2017,09,24,02,33,10.70
2017,09,24,02,34,10.70
2017,09,24,02,35,10.70
2017,09,24,02,36,10.70
2017,09,24,02,37,10.80
2017,09,24,02,38,10.80
2017,09,24,02,39,10.80
2017,09,24,02,40,10.80
2017,09,24,02,41,10.80
2017,09,24,02,42,10.80
2017,09,24,02,43,10.80
2017,09,24,02,44,10.80
2017,09,24,02,45,10.80
2017,09,24,02,46,10.90
2017,09,24,02,47,10.90
2017,09,24,02,48,10.90
2017,09,24,02,49,10.90
2017,09,24,02,50,10.90
2017,09,24,02,51,10.90
2017,09,24,02,52,10.90
2017,09,24,02,53,11.00
2017,09,24,02,54,11.00
2017,09,24,02,55,11.00
2017,09,24,02,56,11.00
2017,09,24,02,57,11.00
2017,09,24,02,58,11.10
2017,09,24,02,59,11.10
2017,09,24,03,00,11.10
2017,09,24,03,01,11.10
2017,09,24,03,02,11.10
2017,09,24,03,03,11.10
2017,09,24,03,04,11.10
2017,09,24,03,05,11.10
2017,09,24,03,06,11.20
2017,09,24,03,07,11.20
2017,09,24,03,08,11.20
2017,09,24,03,09,11.20
2017,09,24,03,10,11.30
2017,09,24,03,11,11.30
2017,09,24,03,12,11.30
2017,09,24,03,13,11.30
2017,09,24,03,14,11.30
2017,09,24,03,15,11.40
2017,09,24,03,16,11.40
2017,09,24,03,17,11.40
2017,09,24,03,18,11.40
2017,09,24,03,19,11.50
2017,09,24,03,20,11.50
2017,09,24,03,21,11.50
2017,09,24,03,22,11.50
2017,09,24,03,23,11.50
2017,09,24,03,24,11.50
2017,09,24,03,25,11.50
2017,09,24,03,26,11.50
2017,09,24,03,27,11.50
2017,09,24,03,28,11.50
2017,09,24,03,29,11.50
2017,09,24,03,30,11.60
2017,09,24,03,31,11.60
2017,09,24,03,32,11.60
2017,09,24,03,33,11.60
2017,09,24,03,34,11.60
2017,09,24,03,35,11.60
2017,09,24,03,36,11.60
2017,09,24,03,37,11.60
2017,09,24,03,38,11.60
2017,09,24,03,39,11.60
2017,09,24,03,40,11.60
2017,09,24,03,41,11.60
2017,09,24,03,42,11.60
2017,09,24,03,43,11.60
2017,09,24,03,44,11.70
2017,09,24,03,45,11.70
2017,09,24,03,46,11.70
2017,09,24,03,47,11.70
2017,09,24,03,48,11.70
2017,09,24,03,49,11.70
2017,09,24,03,50,11.70
2017,09,24,03,51,11.70
2017,09,24,03,52,11.70
2017,09,24,03,53,11.70
2017,09,24,03,54,11.70
2017,09,24,03,55,11.70
2017,09,24,03,56,11.70
2017,09,24,03,57,11.80
2017,09,24,03,58,11.80
2017,09,24,03,59,11.80
2017,09,24,04,00,11.80
2017,09,24,04,01,11.70
2017,09,24,04,02,11.80
2017,09,24,04,03,11.80
2017,09,24,04,04,11.80
2017,09,24,04,05,11.80
2017,09,24,04,06,11.80
2017,09,24,04,07,11.80
2017,09,24,04,08,11.80
2017,09,24,04,09,11.80
2017,09,24,04,10,11.80
2017,09,24,04,11,11.80
2017,09,24,04,12,11.80
2017,09,24,04,13,11.80
2017,09,24,04,14,11.80
2017,09,24,04,15,11.80
2017,09,24,04,16,11.80
2017,09,24,04,17,11.90
2017,09,24,04,18,11.90
2017,09,24,04,19,11.90
2017,09,24,04,20,11.90
2017,09,24,04,21,11.90
2017,09,24,04,22,12.00
2017,09,24,04,23,12.00
2017,09,24,04,24,12.10
2017,09,24,04,25,12.10
2017,09,24,04,26,12.10
2017,09,24,04,27,12.10
2017,09,24,04,28,12.10
2017,09,24,04,29,12.10
2017,09,24,04,30,12.10
2017,09,24,04,31,12.10
2017,09,24,04,32,12.00
2017,09,24,04,33,12.00
2017,09,24,04,34,12.00
2017,09,24,04,35,12.00
2017,09,24,04,36,12.00
2017,09,24,04,37,12.00
2017,09,24,04,38,12.00
2017,09,24,04,39,12.00
2017,09,24,04,40,12.00
2017,09,24,04,41,12.00
2017,09,24,04,42,12.00
2017,09,24,04,43,12.00
2017,09,24,04,44,12.10
2017,09,24,04,45,12.10
2017,09,24,04,46,12.10
2017,09,24,04,47,12.10
2017,09,24,04,48,12.10
2017,09,24,04,49,12.10
2017,09,24,04,50,12.00
2017,09,24,04,51,12.10
2017,09,24,04,52,12.00
2017,09,24,04,53,12.00
2017,09,24,04,54,12.00
2017,09,24,04,55,12.10
2017,09,24,04,56,12.10
2017,09,24,04,57,12.10
2017,09,24,04,58,12.10
2017,09,24,04,59,12.10
2017,09,24,05,00,12.10
2017,09,24,05,01,12.10
2017,09,24,05,02,12.10
2017,09,24,05,03,12.10
2017,09,24,05,04,12.10
2017,09,24,05,05,12.10
2017,09,24,05,06,12.00
2017,09,24,05,07,12.00
2017,09,24,05,08,12.00
2017,09,24,05,09,12.00
2017,09,24,05,10,11.90
2017,09,24,05,11,11.90
2017,09,24,05,12,11.90
2017,09,24,05,13,11.90
2017,09,24,05,14,11.90
2017,09,24,05,15,11.90
2017,09,24,05,16,11.90
2017,09,24,05,17,11.90
2017,09,24,05,18,11.90
2017,09,24,05,19,11.90
2017,09,24,05,20,11.90
2017,09,24,05,21,11.90
2017,09,24,05,22,11.90
2017,09,24,05,23,11.90
2017,09,24,05,24,11.90
2017,09,24,05,25,11.90
2017,09,24,05,26,11.90
2017,09,24,05,27,11.90
2017,09,24,05,28,11.90
2017,09,24,05,29,11.90
2017,09,24,05,30,11.80
2017,09,24,05,31,11.80
2017,09,24,05,32,11.80
2017,09,24,05,33,11.80
2017,09,24,05,34,11.80
2017,09,24,05,35,11.80
2017,09,24,05,36,11.80
2017,09,24,05,37,11.80
2017,09,24,05,38,11.80
2017,09,24,05,39,11.80
2017,09,24,05,40,11.80
2017,09,24,05,41,11.80
2017,09,24,05,42,11.80
2017,09,24,05,43,11.80
2017,09,24,05,44,11.80
2017,09,24,05,45,11.80
2017,09,24,05,46,11.80
2017,09,24,05,47,11.80
2017,09,24,05,48,11.80
2017,09,24,05,49,11.80
2017,09,24,05,50,11.80
2017,09,24,05,51,11.80
2017,09,24,05,52,11.80
2017,09,24,05,53,11.80
2017,09,24,05,54,11.90
2017,09,24,05,55,11.90
2017,09,24,05,56,11.90
2017,09,24,05,57,11.90
2017,09,24,05,58,11.90
2017,09,24,05,59,11.90
2017,09,24,06,00,11.90
2017,09,24,06,01,11.90
2017,09,24,06,02,11.90
2017,09,24,06,03,11.90
2017,09,24,06,04,11.90
2017,09,24,06,05,11.90
2017,09,24,06,06,11.90
2017,09,24,06,07,11.90
2017,09,24,06,08,11.90
2017,09,24,06,09,11.90
2017,09,24,06,10,11.90
2017,09,24,06,11,11.90
2017,09,24,06,12,11.90
2017,09,24,06,13,11.90
2017,09,24,06,14,11.90
2017,09,24,06,15,11.90
2017,09,24,06,16,11.90
2017,09,24,06,17,11.90
2017,09,24,06,18,11.90
2017,09,24,06,19,11.90
2017,09,24,06,20,11.90
2017,09,24,06,21,11.90
2017,09,24,06,22,11.90
2017,09,24,06,23,11.90
2017,09,24,06,24,11.90
2017,09,24,06,25,11.90
2017,09,24,06,26,11.90
2017,09,24,06,27,11.90
2017,09,24,06,28,11.90
2017,09,24,06,29,11.90
2017,09,24,06,30,11.90
2017,09,24,06,31,11.90
2017,09,24,06,32,11.90
2017,09,24,06,33,11.90
2017,09,24,06,34,11.90
2017,09,24,06,35,11.90
2017,09,24,06,36,11.90
2017,09,24,06,37,11.90
2017,09,24,06,38,11.90
2017,09,24,06,39,11.90
2017,09,24,06,40,11.90
2017,09,24,06,41,12.00
2017,09,24,06,42,12.00
2017,09,24,06,43,12.00
2017,09,24,06,44,12.00
2017,09,24,06,45,12.00
2017,09,24,06,46,12.10
2017,09,24,06,47,12.10
2017,09,24,06,48,12.10
2017,09,24,06,49,12.10
2017,09,24,06,50,12.10
2017,09,24,06,51,12.10
2017,09,24,06,52,12.10
2017,09,24,06,53,12.10
2017,09,24,06,54,12.20
2017,09,24,06,55,12.20
2017,09,24,06,56,12.20
2017,09,24,06,57,12.20
2017,09,24,06,58,12.20
2017,09,24,06,59,12.20
2017,09,24,07,00,12.20
2017,09,24,07,01,12.20
2017,09,24,07,02,12.20
2017,09,24,07,03,12.20
2017,09,24,07,04,12.20
2017,09,24,07,05,12.20
2017,09,24,07,06,12.20
2017,09,24,07,07,12.30
2017,09,24,07,08,12.30
2017,09,24,07,09,12.30
2017,09,24,07,10,12.30
2017,09,24,07,11,12.30
2017,09,24,07,12,12.30
2017,09,24,07,13,12.30
2017,09,24,07,14,12.30
2017,09,24,07,15,12.30
2017,09,24,07,16,12.30
2017,09,24,07,17,12.30
2017,09,24,07,18,12.30
2017,09,24,07,19,12.30
2017,09,24,07,20,12.30
2017,09,24,07,21,12.30
2017,09,24,07,22,12.40
2017,09,24,07,23,12.40
2017,09,24,07,24,12.40
2017,09,24,07,25,12.40
2017,09,24,07,26,12.40
2017,09,24,07,27,12.40
2017,09,24,07,28,12.40
2017,09,24,07,29,12.40
2017,09,24,07,30,12.40
2017,09,24,07,31,12.40
2017,09,24,07,32,12.50
2017,09,24,07,33,12.50
2017,09,24,07,34,12.50
2017,09,24,07,35,12.50
2017,09,24,07,36,12.50
2017,09,24,07,37,12.50
2017,09,24,07,38,12.50
2017,09,24,07,39,12.40
2017,09,24,07,40,12.40
2017,09,24,07,41,12.40
2017,09,24,07,42,12.40
2017,09,24,07,43,12.40
2017,09,24,07,44,12.40
2017,09,24,07,45,12.40
2017,09,24,07,46,12.40
2017,09,24,07,47,12.40
2017,09,24,07,48,12.40
2017,09,24,07,49,12.40
2017,09,24,07,50,12.40
2017,09,24,07,51,12.40
2017,09,24,07,52,12.40
2017,09,24,07,53,12.40
2017,09,24,07,54,12.30
2017,09,24,07,55,12.30
2017,09,24,07,56,12.30
2017,09,24,07,57,12.30
2017,09,24,07,58,12.40
2017,09,24,07,59,12.30
2017,09,24,08,00,12.30
2017,09,24,08,01,12.30
2017,09,24,08,02,12.30
2017,09,24,08,03,12.40
2017,09,24,08,04,12.40
2017,09,24,08,05,12.40
2017,09,24,08,06,12.40
2017,09,24,08,07,12.40
2017,09,24,08,08,12.40
2017,09,24,08,09,12.40
2017,09,24,08,10,12.40
2017,09,24,08,11,12.50
2017,09,24,08,12,12.50
2017,09,24,08,13,12.50
2017,09,24,08,14,12.50
2017,09,24,08,15,12.60
2017,09,24,08,16,12.60
2017,09,24,08,17,12.60
2017,09,24,08,18,12.60
2017,09,24,08,19,12.70
2017,09,24,08,20,12.70
2017,09,24,08,21,12.70
2017,09,24,08,22,12.80
2017,09,24,08,23,12.80
2017,09,24,08,24,12.80
2017,09,24,08,25,12.90
2017,09,24,08,26,12.90
2017,09,24,08,27,12.90
2017,09,24,08,28,13.00
2017,09,24,08,29,13.00
2017,09,24,08,30,13.00
2017,09,24,08,31,13.10
2017,09,24,08,32,13.10
2017,09,24,08,33,13.10
2017,09,24,08,34,13.10
2017,09,24,08,35,13.20
2017,09,24,08,36,13.20
2017,09,24,08,37,13.20
2017,09,24,08,38,13.20
2017,09,24,08,39,13.30
2017,09,24,08,40,13.30
2017,09,24,08,41,13.30
2017,09,24,08,42,13.40
2017,09,24,08,43,13.40
2017,09,24,08,44,13.40
2017,09,24,08,45,13.50
2017,09,24,08,46,13.50
2017,09,24,08,47,13.50
2017,09,24,08,48,13.50
2017,09,24,08,49,13.60
2017,09,24,08,50,13.60
2017,09,24,08,51,13.60
2017,09,24,08,52,13.70
2017,09,24,08,53,13.70
2017,09,24,08,54,13.70
2017,09,24,08,55,13.70
2017,09,24,08,56,13.70
2017,09,24,08,57,13.80
2017,09,24,08,58,13.80
2017,09,24,08,59,13.80
2017,09,24,09,00,13.80
2017,09,24,09,01,13.80
2017,09,24,09,02,13.80
2017,09,24,09,03,13.90
2017,09,24,09,04,13.90
2017,09,24,09,05,13.90
2017,09,24,09,06,14.00
2017,09,24,09,07,14.00
2017,09,24,09,08,14.10
2017,09,24,09,09,14.10
2017,09,24,09,10,14.20
2017,09,24,09,11,14.30
2017,09,24,09,12,14.30
2017,09,24,09,13,14.40
2017,09,24,09,14,14.50
2017,09,24,09,15,14.50
2017,09,24,09,16,14.60
2017,09,24,09,17,14.70
2017,09,24,09,18,14.80
2017,09,24,09,19,14.80
2017,09,24,09,20,14.90
2017,09,24,09,21,14.90
2017,09,24,09,22,15.00
2017,09,24,09,23,15.00
2017,09,24,09,24,15.00
2017,09,24,09,25,15.10
2017,09,24,09,26,15.10
2017,09,24,09,27,15.10
2017,09,24,09,28,15.20
2017,09,24,09,29,15.20
2017,09,24,09,30,15.20
2017,09,24,09,31,15.20
2017,09,24,09,32,15.20
2017,09,24,09,33,15.20
2017,09,24,09,34,15.30
2017,09,24,09,35,15.30
2017,09,24,09,36,15.30
2017,09,24,09,37,15.30
2017,09,24,09,38,15.30
2017,09,24,09,39,15.30
2017,09,24,09,40,15.30
2017,09,24,09,41,15.30
2017,09,24,09,42,15.30
2017,09,24,09,43,15.30
2017,09,24,09,44,15.30
2017,09,24,09,45,15.30
2017,09,24,09,46,15.30
2017,09,24,09,47,15.30
2017,09,24,09,48,15.40
2017,09,24,09,49,15.40
2017,09,24,09,50,15.40
2017,09,24,09,51,15.50
2017,09,24,09,52,15.50
2017,09,24,09,53,15.60
2017,09,24,09,54,15.60
2017,09,24,09,55,15.60
2017,09,24,09,56,15.60
2017,09,24,09,57,15.70
2017,09,24,09,58,15.70
2017,09,24,09,59,15.80
2017,09,24,10,00,15.80
2017,09,24,10,01,15.80
2017,09,24,10,02,15.90
2017,09,24,10,03,15.90
2017,09,24,10,04,16.00
2017,09,24,10,05,16.10
2017,09,24,10,06,16.20
2017,09,24,10,07,16.30
2017,09,24,10,08,16.40
2017,09,24,10,09,16.50
2017,09,24,10,10,16.60
2017,09,24,10,11,16.70
2017,09,24,10,12,16.80
2017,09,24,10,13,16.90
2017,09,24,10,14,17.00
2017,09,24,10,15,17.00
2017,09,24,10,16,17.10
2017,09,24,10,17,17.10
2017,09,24,10,18,17.10
2017,09,24,10,19,17.10
2017,09,24,10,20,17.20
2017,09,24,10,21,17.30
2017,09,24,10,22,17.40
2017,09,24,10,23,17.50
2017,09,24,10,24,17.60
2017,09,24,10,25,17.60
2017,09,24,10,26,17.60
2017,09,24,10,27,17.70
2017,09,24,10,28,17.70
2017,09,24,10,29,17.70
2017,09,24,10,30,17.70
2017,09,24,10,31,17.70
2017,09,24,10,32,17.70
2017,09,24,10,33,17.80
2017,09,24,10,34,17.80
2017,09,24,10,35,17.80
2017,09,24,10,36,17.80
2017,09,24,10,37,17.90
2017,09,24,10,38,17.90
2017,09,24,10,39,18.00
2017,09,24,10,40,18.10
2017,09,24,10,41,18.20
2017,09,24,10,42,18.30
2017,09,24,10,43,18.40
2017,09,24,10,44,18.40
2017,09,24,10,45,18.40
2017,09,24,10,46,18.50
2017,09,24,10,47,18.50
2017,09,24,10,48,18.50
2017,09,24,10,49,18.60
2017,09,24,10,50,18.70
2017,09,24,10,51,18.80
2017,09,24,10,52,18.90
2017,09,24,10,53,19.00
2017,09,24,10,54,19.00
2017,09,24,10,55,19.00
2017,09,24,10,56,18.90
2017,09,24,10,57,18.90
2017,09,24,10,58,18.90
2017,09,24,10,59,18.90
2017,09,24,11,00,18.90
2017,09,24,11,01,18.90
2017,09,24,11,02,18.80
2017,09,24,11,03,18.80
2017,09,24,11,04,18.70
2017,09,24,11,05,18.70
2017,09,24,11,06,18.60
2017,09,24,11,07,18.60
2017,09,24,11,08,18.70
2017,09,24,11,09,18.70
2017,09,24,11,10,18.60
2017,09,24,11,11,18.60
2017,09,24,11,12,18.60
2017,09,24,11,13,18.70
2017,09,24,11,14,18.80
2017,09,24,11,15,18.80
2017,09,24,11,16,18.80
2017,09,24,11,17,18.80
2017,09,24,11,18,18.80
2017,09,24,11,19,18.90
2017,09,24,11,20,18.90
2017,09,24,11,21,18.90
2017,09,24,11,22,18.80
2017,09,24,11,23,18.80
2017,09,24,11,24,18.70
2017,09,24,11,25,18.60
2017,09,24,11,26,18.50
2017,09,24,11,27,18.40
2017,09,24,11,28,18.40
2017,09,24,11,29,18.40
2017,09,24,11,30,18.40
2017,09,24,11,31,18.50
2017,09,24,11,32,18.50
2017,09,24,11,33,18.50
2017,09,24,11,34,18.60
2017,09,24,11,35,18.60
2017,09,24,11,36,18.50
2017,09,24,11,37,18.50
2017,09,24,11,38,18.40
2017,09,24,11,39,18.40
2017,09,24,11,40,18.40
2017,09,24,11,41,18.40
2017,09,24,11,42,18.40
2017,09,24,11,43,18.30
2017,09,24,11,44,18.30
2017,09,24,11,45,18.30
2017,09,24,11,46,18.30
2017,09,24,11,47,18.30
2017,09,24,11,48,18.20
2017,09,24,11,49,18.20
2017,09,24,11,50,18.30
2017,09,24,11,51,18.30
2017,09,24,11,52,18.20
2017,09,24,11,53,18.20
2017,09,24,11,54,18.10
2017,09,24,11,55,18.10
2017,09,24,11,56,18.10
2017,09,24,11,57,18.10
2017,09,24,11,58,18.10
2017,09,24,11,59,18.10
2017,09,24,12,00,18.00
2017,09,24,12,01,18.10
2017,09,24,12,02,18.00
2017,09,24,12,03,18.10
2017,09,24,12,04,18.10
2017,09,24,12,05,18.20
2017,09,24,12,06,18.20
2017,09,24,12,07,18.30
2017,09,24,12,08,18.30
2017,09,24,12,09,18.30
2017,09,24,12,10,18.30
2017,09,24,12,11,18.30
2017,09,24,12,12,18.30
2017,09,24,12,13,18.30
2017,09,24,12,14,18.30
2017,09,24,12,15,18.40
2017,09,24,12,16,18.50
2017,09,24,12,17,18.60
2017,09,24,12,18,18.70
2017,09,24,12,19,18.80
2017,09,24,12,20,18.80
2017,09,24,12,21,18.80
2017,09,24,12,22,18.80
2017,09,24,12,23,18.80
2017,09,24,12,24,18.80
2017,09,24,12,25,18.90
2017,09,24,12,26,18.80
2017,09,24,12,27,18.90
2017,09,24,12,28,18.90
2017,09,24,12,29,19.00
2017,09,24,12,30,19.00
2017,09,24,12,31,19.10
2017,09,24,12,32,19.10
2017,09,24,12,33,19.10
2017,09,24,12,34,19.20
2017,09,24,12,35,19.20
2017,09,24,12,36,19.30
2017,09,24,12,37,19.30
2017,09,24,12,38,19.40
2017,09,24,12,39,19.50
2017,09,24,12,40,19.60
2017,09,24,12,41,19.60
2017,09,24,12,42,19.60
2017,09,24,12,43,19.50
2017,09,24,12,44,19.30
2017,09,24,12,45,19.20
2017,09,24,12,46,19.20
2017,09,24,12,47,19.20
2017,09,24,12,48,19.20
2017,09,24,12,49,19.20
2017,09,24,12,50,19.20
2017,09,24,12,51,19.20
2017,09,24,12,52,19.20
2017,09,24,12,53,19.20
2017,09,24,12,54,19.20
2017,09,24,12,55,19.20
2017,09,24,12,56,19.10
2017,09,24,12,57,19.10
2017,09,24,12,58,19.20
2017,09,24,12,59,19.20
2017,09,24,13,00,19.10
2017,09,24,13,01,19.10
2017,09,24,13,02,19.00
2017,09,24,13,03,19.00
2017,09,24,13,04,19.10
2017,09,24,13,05,19.10
2017,09,24,13,06,19.10
2017,09,24,13,07,19.10
2017,09,24,13,08,19.10
2017,09,24,13,09,19.20
2017,09,24,13,10,19.20
2017,09,24,13,11,19.30
2017,09,24,13,12,19.30
2017,09,24,13,13,19.40
2017,09,24,13,14,19.40
2017,09,24,13,15,19.40
2017,09,24,13,16,19.40
2017,09,24,13,17,19.50
2017,09,24,13,18,19.60
2017,09,24,13,19,19.60
2017,09,24,13,20,19.60
2017,09,24,13,21,19.60
2017,09,24,13,22,19.70
2017,09,24,13,23,19.70
2017,09,24,13,24,19.80
2017,09,24,13,25,19.80
2017,09,24,13,26,19.90
2017,09,24,13,27,19.90
2017,09,24,13,28,19.80
2017,09,24,13,29,19.80
2017,09,24,13,30,19.80
2017,09,24,13,31,19.80
2017,09,24,13,32,19.80
2017,09,24,13,33,19.90
2017,09,24,13,34,19.90
2017,09,24,13,35,19.90
2017,09,24,13,36,20.00
2017,09,24,13,37,20.00
2017,09,24,13,38,20.00
2017,09,24,13,39,20.10
2017,09,24,13,40,20.20
2017,09,24,13,41,20.30
2017,09,24,13,42,20.30
2017,09,24,13,43,20.30
2017,09,24,13,44,20.30
2017,09,24,13,45,20.30
2017,09,24,13,46,20.30
2017,09,24,13,47,20.30
2017,09,24,13,48,20.30
2017,09,24,13,49,20.30
2017,09,24,13,50,20.30
2017,09,24,13,51,20.30
2017,09,24,13,52,20.30
2017,09,24,13,53,20.40
2017,09,24,13,54,20.40
2017,09,24,13,55,20.50
2017,09,24,13,56,20.50
2017,09,24,13,57,20.60
2017,09,24,13,58,20.60
2017,09,24,13,59,20.70
2017,09,24,14,00,20.70
2017,09,24,14,01,20.70
2017,09,24,14,02,20.70
2017,09,24,14,03,20.70
2017,09,24,14,04,20.80
2017,09,24,14,05,20.80
2017,09,24,14,06,20.80
2017,09,24,14,07,20.80
2017,09,24,14,08,20.90
2017,09,24,14,09,21.00
2017,09,24,14,10,21.20
2017,09,24,14,11,21.30
2017,09,24,14,12,21.30
2017,09,24,14,13,21.20
2017,09,24,14,14,21.00
2017,09,24,14,15,20.90
2017,09,24,14,16,20.80
2017,09,24,14,17,20.80
2017,09,24,14,18,20.80
2017,09,24,14,19,20.80
2017,09,24,14,20,20.80
2017,09,24,14,21,20.80
2017,09,24,14,22,20.80
2017,09,24,14,23,20.90
2017,09,24,14,24,20.90
2017,09,24,14,25,21.00
2017,09,24,14,26,21.20
2017,09,24,14,27,21.40
2017,09,24,14,28,21.40
2017,09,24,14,29,21.40
2017,09,24,14,30,21.20
2017,09,24,14,31,21.10
2017,09,24,14,32,21.10
2017,09,24,14,33,21.10
2017,09,24,14,34,21.00
2017,09,24,14,35,20.90
2017,09,24,14,36,20.80
2017,09,24,14,37,20.80
2017,09,24,14,38,20.90
2017,09,24,14,39,20.90
2017,09,24,14,40,20.90
2017,09,24,14,41,20.90
2017,09,24,14,42,20.90
2017,09,24,14,43,20.90
2017,09,24,14,44,20.90
2017,09,24,14,45,21.00
2017,09,24,14,46,21.00
2017,09,24,14,47,21.10
2017,09,24,14,48,21.20
2017,09,24,14,49,21.30
2017,09,24,14,50,21.30
2017,09,24,14,51,21.30
2017,09,24,14,52,21.30
2017,09,24,14,53,21.40
2017,09,24,14,54,21.50
2017,09,24,14,55,21.50
2017,09,24,14,56,21.40
2017,09,24,14,57,21.40
2017,09,24,14,58,21.40
2017,09,24,14,59,21.50
2017,09,24,15,00,21.60
2017,09,24,15,01,21.60
2017,09,24,15,02,21.50
2017,09,24,15,03,21.40
2017,09,24,15,04,21.30
2017,09,24,15,05,21.40
2017,09,24,15,06,21.30
2017,09,24,15,07,21.40
2017,09,24,15,08,21.40
2017,09,24,15,09,21.40
2017,09,24,15,10,21.40
2017,09,24,15,11,21.30
2017,09,24,15,12,21.20
2017,09,24,15,13,21.10
2017,09,24,15,14,21.00
2017,09,24,15,15,20.90
2017,09,24,15,16,20.80
2017,09,24,15,17,20.80
2017,09,24,15,18,20.70
2017,09,24,15,19,20.70
2017,09,24,15,20,20.70
2017,09,24,15,21,20.70
2017,09,24,15,22,20.70
2017,09,24,15,23,20.60
2017,09,24,15,24,20.50
2017,09,24,15,25,20.30
2017,09,24,15,26,20.30
2017,09,24,15,27,20.30
2017,09,24,15,28,20.20
2017,09,24,15,29,20.20
2017,09,24,15,30,20.30
2017,09,24,15,31,20.30
2017,09,24,15,32,20.30
2017,09,24,15,33,20.30
2017,09,24,15,34,20.30
2017,09,24,15,35,20.20
2017,09,24,15,36,20.20
2017,09,24,15,37,20.20
2017,09,24,15,38,20.20
2017,09,24,15,39,20.20
2017,09,24,15,40,20.20
2017,09,24,15,41,20.10
2017,09,24,15,42,20.10
2017,09,24,15,43,20.10
2017,09,24,15,44,20.00
2017,09,24,15,45,19.90
2017,09,24,15,46,19.90
2017,09,24,15,47,19.80
2017,09,24,15,48,19.80
2017,09,24,15,49,19.70
2017,09,24,15,50,19.70
2017,09,24,15,51,19.60
2017,09,24,15,52,19.60
2017,09,24,15,53,19.60
2017,09,24,15,54,19.70
2017,09,24,15,55,19.70
2017,09,24,15,56,19.70
2017,09,24,15,57,19.60
2017,09,24,15,58,19.60
2017,09,24,15,59,19.60
2017,09,24,16,00,19.60
2017,09,24,16,01,19.70
2017,09,24,16,02,19.60
2017,09,24,16,03,19.60
2017,09,24,16,04,19.60
2017,09,24,16,05,19.50
2017,09,24,16,06,19.50
2017,09,24,16,07,19.50
2017,09,24,16,08,19.50
2017,09,24,16,09,19.50
2017,09,24,16,10,19.40
2017,09,24,16,11,19.40
2017,09,24,16,12,19.30
2017,09,24,16,13,19.20
2017,09,24,16,14,19.20
2017,09,24,16,15,19.10
2017,09,24,16,16,19.10
2017,09,24,16,17,19.10
2017,09,24,16,18,19.10
2017,09,24,16,19,19.10
2017,09,24,16,20,19.10
2017,09,24,16,21,19.20
2017,09,24,16,22,19.20
2017,09,24,16,23,19.20
2017,09,24,16,24,19.30
2017,09,24,16,25,19.30
2017,09,24,16,26,19.30
2017,09,24,16,27,19.20
2017,09,24,16,28,19.20
2017,09,24,16,29,19.10
2017,09,24,16,30,19.10
2017,09,24,16,31,19.00
2017,09,24,16,32,18.90
2017,09,24,16,33,18.90
2017,09,24,16,34,18.90
2017,09,24,16,35,18.90
2017,09,24,16,36,18.90
2017,09,24,16,37,18.90
2017,09,24,16,38,18.90
2017,09,24,16,39,18.90
2017,09,24,16,40,18.90
2017,09,24,16,41,18.90
2017,09,24,16,42,18.90
2017,09,24,16,43,18.90
2017,09,24,16,44,18.90
2017,09,24,16,45,19.00
2017,09,24,16,46,19.00
2017,09,24,16,47,19.10
2017,09,24,16,48,19.10
2017,09,24,16,49,19.10
2017,09,24,16,50,19.00
2017,09,24,16,51,19.00
2017,09,24,16,52,19.00
2017,09,24,16,53,18.90
2017,09,24,16,54,18.90
2017,09,24,16,55,18.90
2017,09,24,16,56,18.90
2017,09,24,16,57,18.90
2017,09,24,16,58,18.90
2017,09,24,16,59,18.90
2017,09,24,17,00,18.90
2017,09,24,17,01,18.90
2017,09,24,17,02,19.00
2017,09,24,17,03,19.00
2017,09,24,17,04,19.00
2017,09,24,17,05,19.00
2017,09,24,17,06,19.00
2017,09,24,17,07,18.90
2017,09,24,17,08,18.90
2017,09,24,17,09,18.90
2017,09,24,17,10,18.90
2017,09,24,17,11,18.90
2017,09,24,17,12,18.90
2017,09,24,17,13,18.90
2017,09,24,17,14,18.90
2017,09,24,17,15,18.90
2017,09,24,17,16,18.80
2017,09,24,17,17,18.80
2017,09,24,17,18,18.80
2017,09,24,17,19,18.80